Date,TemperatureHighF,TemperatureAvgF,TemperatureLowF,DewpointHighF,DewpointAvgF,DewpointLowF,HumidityHigh,HumidityAvg,HumidityLow,PressureMaxIn,PressureMinIn,WindSpeedMaxMPH,WindSpeedAvgMPH,GustSpeedMaxMPH,PrecipitationSumIn
2013-7-1,88.7,76.7,74.1,75.8,72.0,70.3,91,86,62,29.85,29.68,14,2,14,0.12
2013-7-2,89.6,78.5,73.6,75.9,72.2,70.6,91,82,61,29.97,29.82,12,3,12,0.00
2013-7-3,87.6,78.5,72.1,77.6,71.8,67.7,89,80,66,30.03,29.94,9,2,10,0.59
2013-7-4,96.4,82.4,73.6,76.5,71.5,67.1,93,72,45,30.06,29.94,13,4,13,0.00
2013-7-5,96.4,83.4,72.9,87.5,71.6,67.4,95,70,40,30.03,29.88,14,4,14,0.00
2013-7-6,100.6,86.0,75.0,76.2,70.2,65.2,88,63,36,29.94,29.79,12,4,12,0.00
2013-7-7,101.3,86.8,75.7,74.3,69.8,65.8,83,60,36,29.85,29.65,14,4,14,0.00
2013-7-8,95.5,81.1,73.2,71.2,65.8,59.5,78,61,38,29.85,29.76,20,4,20,0.00
2013-7-9,93.0,80.9,73.0,75.1,68.6,64.0,88,68,43,29.88,29.79,11,3,11,0.04
2013-7-10,92.7,81.2,73.2,76.8,72.0,66.9,89,75,52,29.82,29.56,13,3,13,0.16
2013-7-11,87.6,79.1,75.7,74.5,71.7,69.5,90,79,58,29.68,29.59,11,3,11,0.08
2013-7-12,77.0,73.7,70.3,71.8,67.6,61.8,95,82,64,29.85,29.68,13,3,13,0.17
2013-7-13,92.7,79.8,71.1,78.4,73.1,69.6,96,81,60,30.09,29.85,6,1,6,0.00
2013-7-14,93.7,82.4,74.5,75.6,72.8,70.1,91,74,51,30.15,30.03,11,2,11,0.00
2013-7-15,100.0,86.1,74.7,74.7,70.5,65.8,89,63,34,30.06,29.91,11,3,11,0.00
2013-7-16,100.0,86.3,77.2,71.7,66.7,60.1,75,54,32,29.97,29.88,8,1,8,0.00
2013-7-17,99.7,86.4,76.1,72.7,67.3,63.5,77,55,35,29.97,29.79,6,1,6,0.00
2013-7-18,103.3,87.9,77.0,77.0,69.8,64.3,74,57,34,29.85,29.68,9,3,9,0.00
2013-7-19,102.4,89.0,79.5,78.2,73.1,68.0,84,62,35,29.76,29.56,15,5,15,0.00
2013-7-20,99.1,87.5,77.7,75.2,71.5,65.8,84,61,36,29.62,29.47,15,6,15,0.00
2013-7-21,92.5,79.3,73.4,74.3,70.3,66.4,88,75,46,29.74,29.59,10,2,10,0.09
2013-7-22,89.2,80.0,74.7,77.8,74.0,70.9,91,82,67,29.71,29.56,6,1,6,0.00
2013-7-23,89.8,80.6,73.8,76.2,72.3,69.1,93,77,57,29.56,29.26,13,3,13,0.91
2013-7-24,93.2,79.6,72.5,69.9,65.0,53.3,84,63,40,29.68,29.41,11,3,11,0.00
2013-7-25,73.8,68.2,66.2,59.8,56.5,52.2,79,67,49,29.79,29.68,14,4,14,0.00
2013-7-26,87.1,73.6,66.0,64.8,61.6,58.6,81,68,41,29.85,29.74,10,2,10,0.00
2013-7-27,90.1,75.6,67.3,67.3,63.3,59.8,85,67,42,29.85,29.71,9,2,9,0.00
2013-7-28,83.7,75.1,67.6,70.2,67.1,63.5,90,77,60,29.76,29.59,6,1,8,0.00
2013-7-29,90.1,76.7,68.7,70.3,63.5,50.6,94,67,34,29.88,29.71,9,2,10,0.96
2013-7-30,90.0,75.0,64.2,56.9,54.2,50.8,71,50,30,29.97,29.79,9,2,9,0.00
2013-7-31,88.2,74.5,65.1,62.0,57.8,54.0,76,58,38,29.94,29.82,6,1,6,0.00